Location: New Plymouth
(39.0670°S, 174.0830°E)
Time: 20:48:00
(UTC+12:00)

Cosmos 1939 Rocket - Pass Details

Date: 24 January 2019
Orbit: 534 x 584 km, 97.4° (Epoch: 19 April)

Event Time Altitude Azimuth Distance (km) Brightness Sun altitude
Rises 21:32:09 0° 168° (SSE) 2,843 6.8 -8.6°
Maximum altitude 21:38:33 85° 79° (ENE) 601 2.9 -9.6°
Drops below altitude 10° 21:42:43 10° 349° (N) 1,906 5.3 -10.3°
Sets 21:44:51 0° 348° (NNW) 2,794 6.2 -10.6°
